Location: B?dargowo
(53.3916°N, 14.4413°E)
Time: 01:35:37
(UTC+00:00)

Cosmos 2333 Rocket - Pass Details

Date: 05 February 2023
Orbit: 838 x 864 km, 70.8° (Epoch: 20 March)

Event Time Altitude Azimuth Distance (km) Brightness Sun altitude
Rises 17:48:35 0° 197° (SSW) 3,383 5.6 -17.4°
Reaches altitude 10° 17:51:02 10° 194° (SSW) 2,454 4.8 -17.8°
Maximum altitude 17:56:34 61° 115° (ESE) 955 2.2 -18.6°
Enters shadow 18:00:18 22° 42° (NE) 1,802 3.5 -19.2°
